"���","����z","�����Y���z"
"2019-01-29","10000","9999972"
"2019-01-30","10000","9999873"
"2019-01-31","10000","10000274"
"2019-02-01","10028","10028111"
"2019-02-04","10145","10347591"
"2019-02-05","10189","10415324"
"2019-02-06","10247","11599893"
"2019-02-07","10228","12096272"
"2019-02-08","10074","12107451"
"2019-02-12","10174","12579198"
"2019-02-13","10275","12930515"
"2019-02-14","10342","13212562"
"2019-02-15","10253","13118564"
"2019-02-18","10396","13354789"
"2019-02-19","10424","13650069"
"2019-02-20","10450","13684753"
"2019-02-21","10486","14872523"
"2019-02-22","10494","14936516"
"2019-02-25","10559","15177714"
"2019-02-26","10628","15314343"
"2019-02-27","10583","15282699"
"2019-02-28","10561","15308302"
"2019-03-01","10620","16413376"
"2019-03-04","10677","16769368"
"2019-03-05","10642","16839794"
"2019-03-06","10629","17517280"
"2019-03-07","10585","17559908"
"2019-03-08","10481","17198436"
"2019-03-11","10334","17076070"
"2019-03-12","10510","17394566"
"2019-03-13","10548","17568874"
"2019-03-14","10620","17725036"
"2019-03-15","10674","17829332"
"2019-03-18","10731","17888725"
"2019-03-19","10714","17876551"
"2019-03-20","10817","17972787"
"2019-03-22","10646","17700894"
"2019-03-25","10425","17386218"
"2019-03-26","10423","17303172"
"2019-03-27","10530","17536215"
"2019-03-28","10466","17461549"
"2019-03-29","10536","17614924"
"2019-04-01","10648","17989211"
"2019-04-02","10756","18202276"
"2019-04-03","10780","18471756"
"2019-04-04","10887","18666985"
"2019-04-05","10863","18659857"
"2019-04-08","10880","18600507"
"2019-04-09","10906","18660141"
"2019-04-10","10835","18569814"
"2019-04-11","10862","19206991"
"2019-04-12","10927","19400928"
"2019-04-15","11011","19568827"
"2019-04-16","11016","19599955"
"2019-04-17","11059","19709627"
"2019-04-18","11026","19669403"
"2019-04-19","11021","19865743"
"2019-04-22","11019","21405661"
"2019-04-23","11008","21382561"
"2019-04-24","11069","21501216"
"2019-04-25","11111","22868937"
"2019-04-26","11042","22754146"
"2019-05-07","10870","22557563"
"2019-05-08","10713","22179163"
"2019-05-09","10693","23504360"
"2019-05-10","10523","24215005"
"2019-05-13","10508","24181577"
"2019-05-14","10413","24196300"
"2019-05-15","10544","24608303"
"2019-05-16","10565","23822781"
"2019-05-17","10735","24377247"
"2019-05-20","10709","24379019"
"2019-05-21","10630","24332557"
"2019-05-22","10711","24702233"
"2019-05-23","10667","24629684"
"2019-05-24","10497","24293180"
"2019-05-27","10523","24445515"
"2019-05-28","10547","24574963"
"2019-05-29","10494","24451312"
"2019-05-30","10353","24661250"
"2019-05-31","10327","24857067"
"2019-06-03","10219","24598214"
"2019-06-04","10212","24713179"
"2019-06-05","10319","25374237"
"2019-06-06","10427","25734088"
"2019-06-07","10504","26010130"
"2019-06-10","10636","26413765"
"2019-06-11","10635","26510793"
"2019-06-12","10683","26630239"
"2019-06-13","10640","26821884"
"2019-06-14","10652","26890453"
"2019-06-17","10659","26923719"
"2019-06-18","10657","26955702"
"2019-06-19","10763","27470052"
"2019-06-20","10688","27264795"
"2019-06-21","10763","27538094"
"2019-06-24","10795","27649346"
"2019-06-25","10776","27722533"
"2019-06-26","10740","27783558"
"2019-06-27","10743","27862329"
"2019-06-28","10736","28175123"
"2019-07-01","10841","28500811"
"2019-07-02","10952","28859560"
"2019-07-03","10885","29485695"
"2019-07-04","10985","29790162"
"2019-07-05","11023","29913084"
"2019-07-08","10976","29785156"
"2019-07-09","10994","29836920"
"2019-07-10","10966","30821042"
"2019-07-11","10930","30782487"
"2019-07-12","10996","30973179"
"2019-07-16","10981","30964683"
"2019-07-17","11001","31062075"
"2019-07-18","10909","30925779"
"2019-07-19","10816","30728890"
"2019-07-22","10914","31338757"
"2019-07-23","10880","31367025"
"2019-07-24","10918","31596733"
"2019-07-25","10960","31724881"
"2019-07-26","10993","31617204"
"2019-07-29","10983","31661538"
"2019-07-30","11040","31866891"
"2019-07-31","10980","31784480"
"2019-08-01","11040","30897907"
"2019-08-02","10835","31333511"
"2019-08-05","10496","30353109"
"2019-08-06","10286","30228041"
"2019-08-07","10229","30107686"
"2019-08-08","10277","30643789"
"2019-08-09","10460","31565419"
"2019-08-13","10321","31312486"
"2019-08-14","10486","32264312"
"2019-08-15","10272","31791069"
"2019-08-16","10226","31795622"
"2019-08-19","10391","32307285"
"2019-08-20","10517","32976006"
"2019-08-21","10468","32434758"
"2019-08-22","10555","32750352"
"2019-08-23","10504","32718077"
"2019-08-26","10260","32260001"
"2019-08-27","10326","32490602"
"2019-08-28","10365","32614481"
"2019-08-29","10402","32919991"
"2019-08-30","10541","33423107"
"2019-09-02","10509","33467370"
"2019-09-03","10513","33734074"
"2019-09-04","10451","33537134"
"2019-09-05","10622","35595627"
"2019-09-06","10798","36195551"
"2019-09-09","10804","35239658"
"2019-09-10","10848","35403171"
"2019-09-11","10792","35376663"
"2019-09-12","10905","35825579"
"2019-09-13","10996","36110838"
"2019-09-17","10963","36056221"
"2019-09-18","10995","35764246"
"2019-09-19","11014","37164931"
"2019-09-20","11048","37273498"
"2019-09-24","10935","36966365"
"2019-09-25","10882","36727800"
"2019-09-26","10879","36745285"
"2019-09-27","10915","36825683"
"2019-09-30","10962","37035106"
"2019-10-01","10960","35097905"
"2019-10-02","10846","34796883"
"2019-10-03","10518","34176306"
"2019-10-04","10545","34364576"
"2019-10-07","10645","34748300"
"2019-10-08","10775","35274251"
"2019-10-09","10581","34422068"
"2019-10-10","10664","34954086"
"2019-10-11","10842","35728193"
"2019-10-15","10979","34470008"
"2019-10-16","11100","34838860"
"2019-10-17","11070","35340767"
"2019-10-18","11097","35312142"
"2019-10-21","11066","35303360"
"2019-10-23","11158","35615407"
"2019-10-24","11151","36753756"
"2019-10-25","11212","37258162"
"2019-10-28","11252","37028756"
"2019-10-29","11301","37299561"
"2019-10-30","11327","37765707"
"2019-10-31","11313","37834747"
"2019-11-01","11194","37800232"
"2019-11-05","11439","38883891"
"2019-11-06","11436","38874376"
"2019-11-07","11432","39386593"
"2019-11-08","11527","39642599"
"2019-11-11","11478","39377855"
"2019-11-12","11477","39437688"
"2019-11-13","11489","39478878"
"2019-11-14","11449","39481337"
"2019-11-15","11439","39465832"
"2019-11-18","11532","39874056"
"2019-11-19","11541","39969020"
"2019-11-20","11540","40087032"
"2019-11-21","11482","40001717"
"2019-11-22","11457","41078445"
"2019-11-25","11470","41178662"
"2019-11-26","11585","42283512"
"2019-11-27","11639","42519407"
"2019-11-28","11688","42247510"
"2019-11-29","11708","47380581"
"2019-12-02","11691","47310722"
"2019-12-03","11524","47699509"
"2019-12-04","11385","47607523"
"2019-12-05","11543","48308317"
"2019-12-06","11513","50517429"
"2019-12-09","11610","51368950"
"2019-12-10","11599","51347220"
"2019-12-11","11599","52574904"
"2019-12-12","11588","52754162"
"2019-12-13","11758","54065289"
"2019-12-16","11785","54841179"
"2019-12-17","11918","56741256"
"2019-12-18","11893","56807085"
"2019-12-19","11896","56561428"
"2019-12-20","11886","57391288"
"2019-12-23","11963","58554217"
"2019-12-24","11972","58954494"
"2019-12-25","11957","62875688"
"2019-12-26","11982","63006941"
"2019-12-27","11993","63063991"
"2019-12-30","12047","63349240"
"2020-01-06","11835","63228452"
"2020-01-07","11849","63826335"
"2020-01-08","11796","66319774"
"2020-01-09","11974","67417640"
"2020-01-10","12067","69078867"
"2020-01-14","12151","70072527"
"2020-01-15","12165","70473735"
"2020-01-16","12213","71466526"
"2020-01-17","12262","74313447"
"2020-01-20","12299","69451360"
"2020-01-21","12307","71395128"
"2020-01-22","12275","71204809"
"2020-01-23","12268","75508912"
"2020-01-24","12150","80283344"
"2020-01-27","12132","81447343"
"2020-01-28","11890","79962595"
"2020-01-29","12010","83563238"
"2020-01-30","12028","84622118"
"2020-01-31","11964","84754544"
"2020-02-03","11821","84202438"
"2020-02-04","11895","85791258"
"2020-02-05","12233","92262163"
"2020-02-06","12299","93636804"
"2020-02-07","12375","94302551"
"2020-02-10","12290","94100661"
"2020-02-12","12402","95892540"
"2020-02-13","12432","99829027"
"2020-02-14","12434","100097351"
"2020-02-17","12421","99839502"
"2020-02-18","12462","100191561"
"2020-02-19","12393","99636258"
"2020-02-20","12645","104830994"
"2020-02-21","12565","110324699"
"2020-02-25","12087","105288336"
"2020-02-26","11860","104397865"
"2020-02-27","11831","103906241"
"2020-02-28","11379","100591247"
"2020-03-02","10764","96521463"
"2020-03-03","11075","97055187"
"2020-03-04","11136","99536785"
"2020-03-05","11225","101393344"
"2020-03-06","11106","101387005"
"2020-03-09","10340","94495492"
"2020-03-10","9866","90345826"
"2020-03-11","9851","91508211"
"2020-03-12","9834","87650460"
"2020-03-13","8828","79527525"
"2020-03-16","9125","80015088"
"2020-03-17","9001","79886529"
"2020-03-18","9029","82648747"
"2020-03-19","8679","80115529"
"2020-03-23","9012","83720519"
"2020-03-24","8515","79131171"
"2020-03-25","9314","90265608"
"2020-03-26","9565","92978570"
"2020-03-27","9766","96138528"
"2020-03-30","9485","93732200"
"2020-03-31","9749","97667750"
"2020-04-01","9744","97723742"
"2020-04-02","9351","94038858"
"2020-04-03","9425","95455285"
"2020-04-06","9407","95650832"
"2020-04-07","9840","100107061"
"2020-04-08","10135","104058250"
"2020-04-09","10109","103968632"
"2020-04-10","10304","106537418"
"2020-04-13","10268","106366392"
"2020-04-14","10213","105790015"
"2020-04-15","10270","106381283"
"2020-04-16","10119","105564389"
"2020-04-17","10164","106222151"
"2020-04-20","10370","108489228"
"2020-04-21","10446","109838777"
"2020-04-22","10028","105915678"
"2020-04-23","10202","107917659"
"2020-04-24","10293","108943391"
"2020-04-27","10164","107873467"
"2020-04-28","10405","110581620"
"2020-04-30","10577","112833350"
"2020-05-01","10535","112731197"
"2020-05-07","10225","109789594"
"2020-05-08","10330","110913883"
"2020-05-11","10524","114861670"
"2020-05-12","10580","115475407"
"2020-05-13","10580","116148687"
"2020-05-14","10305","113555608"
"2020-05-15","10192","112431918"
"2020-05-18","10272","113666863"
"2020-05-19","10688","118379890"
"2020-05-20","10728","119156177"
"2020-05-21","10793","120951578"
"2020-05-22","10794","131079593"
"2020-05-25","10640","129202654"
"2020-05-26","10839","133826131"
"2020-05-27","10868","134189640"
"2020-05-28","10885","135145456"
"2020-05-29","11076","137681039"
"2020-06-01","10966","136502532"
"2020-06-02","10950","136612370"
"2020-06-03","11291","140860467"
"2020-06-04","11527","144824302"
"2020-06-05","11518","145834069"
"2020-06-08","11827","149602017"
"2020-06-09","11636","148297331"
"2020-06-10","11576","147970847"
"2020-06-11","11450","146849682"
"2020-06-12","11062","141362864"
"2020-06-15","10984","140855042"
"2020-06-16","10942","139462199"
"2020-06-17","11259","144340087"
"2020-06-18","11254","145469866"
"2020-06-19","11234","146835941"
"2020-06-22","11280","147856712"
"2020-06-23","11226","147800281"
"2020-06-24","11347","148987799"
"2020-06-25","11069","145336945"
"2020-06-26","11053","145194642"
"2020-06-29","11058","146310730"
"2020-06-30","11159","147755797"
"2020-07-01","11295","149765568"
"2020-07-02","11302","147515882"
"2020-07-03","11484","150967548"
"2020-07-06","11424","150170706"
"2020-07-07","11587","152307544"
"2020-07-08","11585","153670406"
"2020-07-09","11467","152243930"
"2020-07-10","11379","151305430"
"2020-07-13","11452","151822746"
"2020-07-14","11717","155593767"
"2020-07-15","11577","153853680"
"2020-07-16","11733","155933841"
"2020-07-17","11706","156442357"
"2020-07-20","11761","157486882"
"2020-07-21","11795","156131283"
"2020-07-22","11894","157713482"
"2020-07-27","11627","152737917"
"2020-07-28","11643","155383445"
"2020-07-29","11668","157793792"
"2020-07-30","11689","158198502"
"2020-07-31","11509","155821050"
"2020-08-03","11588","157058521"
"2020-08-04","11775","159988419"
"2020-08-05","11741","159945254"
"2020-08-06","11859","161066233"
"2020-08-07","11781","161514532"
"2020-08-11","11889","162961792"
"2020-08-12","12039","165006569"
"2020-08-13","12152","169544663"
"2020-08-14","12197","170657684"
"2020-08-17","12126","168141890"
"2020-08-18","12118","168180606"
"2020-08-19","12074","167764062"
"2020-08-20","12196","170138511"
"2020-08-21","12062","168480721"
"2020-08-24","12043","168038830"
"2020-08-25","12186","170617775"
"2020-08-26","12260","171653439"
"2020-08-27","12325","173132668"
"2020-08-28","12470","174944937"
"2020-08-31","12331","173660827"
"2020-09-01","12379","174471899"
"2020-09-02","12424","175103242"
"2020-09-03","12549","177204659"
"2020-09-04","12307","173723882"
"2020-09-07","12053","171535038"
"2020-09-08","12217","174101828"
"2020-09-09","11931","170015358"
"2020-09-10","12150","173853214"
"2020-09-11","12175","174437658"
"2020-09-14","12091","174684210"
"2020-09-15","12194","176323166"
"2020-09-16","12231","177275239"
"2020-09-17","12251","178216901"
"2020-09-18","12084","176089033"
"2020-09-23","11769","171672240"
"2020-09-24","11851","173135856"
"2020-09-25","11713","172144488"
"2020-09-28","11729","172721979"
"2020-09-29","11995","178195748"
"2020-09-30","12030","178854418"
"2020-10-01","12065","179734385"
"2020-10-02","12107","180749618"
"2020-10-05","12034","180363831"
"2020-10-06","12174","182562857"
"2020-10-07","12215","183213660"
"2020-10-08","12250","181815933"
"2020-10-09","12306","183134825"
"2020-10-12","12398","185229243"
"2020-10-13","12489","186894142"
"2020-10-14","12466","186553906"
"2020-10-15","12453","186371116"
"2020-10-16","12271","183603058"
"2020-10-19","12382","184803184"
"2020-10-20","12368","184647956"
"2020-10-21","12258","183632078"
"2020-10-22","12154","183058579"
"2020-10-23","12114","182486115"
"2020-10-26","12151","183448897"
"2020-10-27","11924","180303704"
"2020-10-28","11909","180769357"
"2020-10-29","11598","175839027"
"2020-10-30","11578","175931801"
"2020-11-02","11518","176870740"
"2020-11-04","12005","183945455"
"2020-11-05","12180","187267917"
"2020-11-06","12308","190648800"
"2020-11-09","12260","191473995"
"2020-11-10","12791","200377119"
"2020-11-11","12605","197696147"
"2020-11-12","12754","200314028"
"2020-11-13","12653","198729827"
"2020-11-16","12616","195537569"
"2020-11-17","12767","198682420"
"2020-11-18","12732","198610949"
"2020-11-19","12732","247745511"
"2020-11-20","12604","245675759"
"2020-11-24","12729","248295905"
"2020-11-25","12924","252752617"
"2020-11-26","12904","252635554"
"2020-11-27","12873","272592420"
"2020-11-30","12944","274086158"
"2020-12-01","12827","271958007"
"2020-12-02","13000","278648843"
"2020-12-03","12963","279255863"
"2020-12-04","12927","278636360"
"2020-12-07","12982","279989140"
"2020-12-08","12995","281525022"
"2020-12-09","13015","281697300"
"2020-12-10","13031","282644255"
"2020-12-11","12950","282203825"
"2020-12-14","12901","281752793"
"2020-12-15","13024","287755811"
"2020-12-16","12964","288431288"
"2020-12-17","13030","294323492"
"2020-12-18","13129","296880066"
"2020-12-21","13125","296369958"
"2020-12-22","12966","292836087"
"2020-12-23","13035","296309679"
"2020-12-24","13116","307235166"
"2020-12-25","13097","307108453"
"2020-12-28","13114","307515075"
"2020-12-29","13267","311104056"
"2020-12-30","13259","310905120"
"2021-01-04","13248","313626979"
"2021-01-05","13226","314788620"
"2021-01-06","13214","318645412"
"2021-01-07","13438","324659614"
"2021-01-08","13634","330911270"
"2021-01-12","13748","335472637"
"2021-01-13","13673","335487141"
"2021-01-14","13711","336747119"
"2021-01-15","13715","337883773"
"2021-01-18","13580","336102933"
"2021-01-19","13556","336021556"
"2021-01-20","13634","337959530"
"2021-01-21","13698","340655023"
"2021-01-22","13719","344505926"
"2021-01-25","13743","333354545"
"2021-01-26","13706","334652373"
"2021-01-27","13760","337219965"
"2021-01-28","13621","313924137"
"2021-01-29","13705","315159231"
"2021-02-01","13479","318771091"
"2021-02-02","13583","323159995"
"2021-02-03","13835","331380830"
"2021-02-04","13801","331852086"
"2021-02-05","13922","337962060"
"2021-02-08","14009","341922029"
"2021-02-09","14037","344266430"
"2021-02-10","13990","345738948"
"2021-02-12","14061","348806600"
"2021-02-15","14123","355677044"
"2021-02-16","14267","367112272"
"2021-02-17","14292","367775382"
"2021-02-18","14080","366874804"
"2021-02-19","14076","369136616"
"2021-02-22","14166","371644758"
"2021-02-24","13866","366795597"
"2021-02-25","14009","401921296"
"2021-02-26","13990","400746201"
"2021-03-01","13752","397031495"
"2021-03-02","13996","405934169"
"2021-03-03","13906","406376826"
"2021-03-04","13870","406128188"
"2021-03-05","13774","404644123"
"2021-03-08","13503","397810263"
"2021-03-09","13994","413641923"
"2021-03-10","14057","416919399"
"2021-03-11","14130","421623725"
"2021-03-12","14268","426677313"
"2021-03-15","14254","429417653"
"2021-03-16","14376","437360189"
"2021-03-17","14434","445160479"
"2021-03-18","14331","442833400"
"2021-03-19","14428","448318001"
"2021-03-22","14287","445361465"
"2021-03-23","14391","450530615"
"2021-03-24","14300","449027680"
"2021-03-25","14299","451398003"
"2021-03-26","14255","450759437"
"2021-03-29","14432","457827935"
"2021-03-30","14505","460513005"
"2021-03-31","14656","466622378"
"2021-04-01","14707","442981052"
"2021-04-02","14813","458169544"
"2021-04-05","14810","460179826"
"2021-04-06","14765","458773007"
"2021-04-07","14911","463302195"
"2021-04-08","14858","472983305"
"2021-04-09","14864","475493534"
"2021-04-12","14953","476127845"
"2021-04-13","14981","480978345"
"2021-04-14","14979","493500995"
"2021-04-15","15056","497929345"
"2021-04-16","15077","499007379"
"2021-04-19","15151","503980783"
"2021-04-20","15033","510179168"
"2021-04-21","14861","507201150"
"2021-04-22","14997","455938225"
"2021-04-23","15072","446196826"
"2021-04-26","15066","447493405"
"2021-04-27","15133","451063074"
"2021-04-28","15185","459111346"
"2021-04-30","15121","459154623"
"2021-05-06","15166","459774664"
"2021-05-07","15131","469868026"
"2021-05-10","15299","483592912"
"2021-05-11","15350","492357674"
"2021-05-12","15004","483863998"
"2021-05-13","14929","482282277"
"2021-05-14","14929","483883125"
"2021-05-17","15110","489749417"
"2021-05-18","15009","488267580"
"2021-05-19","15036","491653867"
"2021-05-20","14830","485703433"
"2021-05-21","15075","494715697"
"2021-05-24","15148","500086533"
"2021-05-25","15130","501047399"
"2021-05-26","15203","503438697"
"2021-05-27","15272","510191563"
"2021-05-28","15390","513626170"
"2021-05-31","15433","518312197"
"2021-06-01","15325","515219568"
"2021-06-02","15401","517781253"
"2021-06-03","15409","527989893"
"2021-06-04","15436","531574811"
"2021-06-07","15449","529714682"
"2021-06-08","15461","531697286"
"2021-06-09","15462","534956603"
"2021-06-10","15533","544152832"
"2021-06-11","15524","544826375"
"2021-06-14","15575","548312503"
"2021-06-15","15630","552997364"
"2021-06-16","15661","557500706"
"2021-06-17","15764","578550736"
"2021-06-18","15607","576569759"
"2021-06-21","15402","571143050"
"2021-06-22","15525","578173287"
"2021-06-23","15671","594299222"
"2021-06-24","15716","600669739"
"2021-06-25","15824","604789683"
"2021-06-28","15825","620352597"
"2021-06-29","15809","622581952"
"2021-06-30","15857","636216677"
"2021-07-01","15859","644552126"
"2021-07-02","15994","649507835"
"2021-07-05","15992","653589396"
"2021-07-06","16012","662255894"
"2021-07-07","15830","654730854"
"2021-07-08","15917","663712788"
"2021-07-09","15659","655910695"
"2021-07-12","15889","667077272"
"2021-07-13","16030","689507856"
"2021-07-14","16087","694788635"
"2021-07-15","15929","691354510"
"2021-07-16","15850","692162398"
"2021-07-19","15790","693932027"
"2021-07-20","15499","686600653"
"2021-07-21","15680","698806175"
"2021-07-26","16072","717549647"
"2021-07-27","16038","712688821"
"2021-07-28","15863","709186044"
"2021-07-29","15918","702066349"
"2021-07-30","16053","709582322"
"2021-08-02","16002","707314058"
"2021-08-03","16081","713650119"
"2021-08-04","16006","719797508"
"2021-08-05","16147","728952062"
"2021-08-06","16247","757976728"
"2021-08-10","16267","763533667"
"2021-08-11","16313","766358344"
"2021-08-12","16322","768765846"
"2021-08-13","16342","810950042"
"2021-08-16","16299","813633026"
"2021-08-17","16194","813380252"
"2021-08-18","16126","815546520"
"2021-08-19","16216","824668691"
"2021-08-20","16073","819383908"
"2021-08-23","16192","791001970"
"2021-08-24","16372","801926541"
"2021-08-25","16396","803259084"
"2021-08-26","16449","815985219"
"2021-08-27","16376","804979480"
"2021-08-30","16419","818587381"
"2021-08-31","16533","844624843"
"2021-09-01","16554","845703018"
"2021-09-02","16559","866510562"
"2021-09-03","16630","880574304"
"2021-09-06","16625","880876782"
"2021-09-07","16704","887294029"
"2021-09-08","16644","884136471"
"2021-09-09","16554","887265705"
"2021-09-10","16528","872344277"
"2021-09-13","16508","872590987"
"2021-09-14","16456","873576988"
"2021-09-15","16440","876483136"
"2021-09-16","16371","890387324"
"2021-09-17","16404","896564139"
"2021-09-21","15982","892209109"
"2021-09-22","16053","895570646"
"2021-09-24","16471","913545205"
"2021-09-27","16410","919542688"
"2021-09-28","16439","916552161"
"2021-09-29","16177","915665154"
"2021-09-30","16212","919058639"
"2021-10-01","16087","913417549"
"2021-10-04","15920","905163043"
"2021-10-05","15770","899667789"
"2021-10-06","16115","920355034"
"2021-10-07","15852","906885424"
"2021-10-08","16297","934939033"
"2021-10-11","16292","933043635"
"2021-10-12","16505","947002315"
"2021-10-13","16402","941075159"
"2021-10-14","16401","943965157"
"2021-10-15","16759","974386362"
"2021-10-18","16974","958423989"
"2021-10-19","16990","960685935"
"2021-10-20","17181","974913107"
"2021-10-21","17172","976917372"
"2021-10-22","17148","968612152"
"2021-10-25","17214","973669037"
"2021-10-26","17351","988673901"
"2021-10-27","17565","1009107989"
"2021-10-28","17522","1014251743"
"2021-10-29","17611","1020265634"
"2021-11-01","17693","1036419603"
"2021-11-02","17860","1050940163"
"2021-11-04","17940","1055656834"
"2021-11-05","18140","1080070816"
"2021-11-08","18187","1103271137"
"2021-11-09","18094","1104857470"
"2021-11-10","17922","1093725801"
"2021-11-11","18034","1103649320"
"2021-11-12","17984","1105469118"
"2021-11-15","18016","1107429720"
"2021-11-16","18037","1128598239"
"2021-11-17","18242","1147020889"
"2021-11-18","18081","1141429944"
"2021-11-19","18181","1165475438"
"2021-11-22","18150","1155899235"
"2021-11-24","18058","1156493850"
"2021-11-25","18094","1164588851"
"2021-11-26","18109","1167494681"
"2021-11-29","17502","1128363723"
"2021-11-30","17658","1153282703"
"2021-12-01","17364","1134762413"
"2021-12-02","17605","1144914194"
"2021-12-03","17288","1137585559"
"2021-12-06","17136","1128325621"
"2021-12-07","17291","1140779656"
"2021-12-08","17764","1174114560"
"2021-12-09","17793","1165394983"
"2021-12-10","17706","1167325512"
"2021-12-13","17654","1165742345"
"2021-12-14","17600","1162861290"
"2021-12-15","17329","1145936092"
"2021-12-16","17419","1154779188"
"2021-12-17","17590","1167929599"
"2021-12-20","17380","1159623110"
"2021-12-21","17001","1136555235"
"2021-12-22","17304","1159454808"
"2021-12-23","17634","1183083351"
"2021-12-24","17854","1198719567"
"2021-12-27","17841","1200706995"
"2021-12-28","18102","1218243904"
"2021-12-29","18162","1222267428"
"2021-12-30","18152","1221599615"
"2022-01-04","18148","1203997943"
"2022-01-05","18277","1213089090"
"2022-01-06","18203","1204733299"
"2022-01-07","17835","1180902001"
"2022-01-11","17335","1154764895"
"2022-01-12","17615","1179664394"
"2022-01-13","17700","1171632788"
"2022-01-14","17594","1145538208"
"2022-01-17","17279","1129024384"
"2022-01-18","17432","1139895562"
"2022-01-19","17169","1122718312"
"2022-01-20","17025","1110626461"
"2022-01-21","17084","1120183999"
"2022-01-24","16697","1098796071"
"2022-01-25","15995","1052391581"
"2022-01-26","16070","1057729016"
"2022-01-27","16501","1094283694"
"2022-01-28","16406","1079462431"
"2022-01-31","16189","1067143332"
"2022-02-01","16561","1091575940"